Location: *
(29.1167°S, 130.0000°E)
Time: 09:28:09
(UTC+00:00)

OAO 1 Rocket - Pass Details

Date: 21 July 2019
Orbit: 743 x 755 km, 35.0° (Epoch: 19 August)

Event Time Altitude Azimuth Distance (km) Brightness Sun altitude
Rises 10:32:07 0° 249° (WSW) 3,217 8.6 -23.7°
Reaches altitude 10° 10:34:36 10° 246° (WSW) 2,290 7.7 -24.2°
Maximum altitude 10:39:59 71° 162° (SSE) 803 4.4 -25.4°
Enters shadow 10:40:05 71° 153° (SSE) 803 4.4 -25.4°
